Location: Esp�n
(42.4593°N, 0.2047°W)
Time: 04:31:49
(UTC+00:00)

Meteor 1-27 - Pass Details

Date: 07 June 2020
Orbit: 836 x 894 km, 81.3° (Epoch: 04 July)

Event Time Altitude Azimuth Distance (km) Brightness Sun altitude
Rises 01:50:51 0° 347° (NNW) 3,397 8.1 -19.9°
Reaches altitude 10° 01:53:17 10° 345° (NNW) 2,460 7.3 -19.7°
Maximum altitude 01:58:47 66° 264° (W) 916 4.2 -19.2°
Enters shadow 02:01:17 33° 193° (SSW) 1,384 4.8 -19.0°
